Flag for Austria Weather past 2 weeks in Neunkirchen, Lower Austria, Austria

46 °F


Feels Like: 41 °F
Forecast: 44 / 48 °F
Wind: 13 mph from Southeast

Location: Vienna Schwechat-Flughafen Airport

Current Time: Oct 14, 2015 at 1:06:10 AM

Latest Report: Oct 14, 2015 at 12:20 AM

Visibility: 2 mi

Pressure: 29.98 "Hg

Humidity: 100%

Dew point: 46 °F

Location of NeunkirchenLocation

Historic Weather in Neunkirchen — Graph


Neunkirchen temperature yesterday

Maximum temperature yesterday: 46 °F (at 11:20 PM)
Minimum temperature yesterday: 32 °F (at 12:20 AM)
Average temperature yesterday: 40 °F

Past Weeks' High & Low Weather Summary

High70 °F (Oct 3, 3:50 PM)100% (Oct 1, 5:20 AM)30.51 "Hg (Oct 1, 5:20 AM)
Low32 °F (Oct 12, 11:50 PM)45% (Sep 29, 2:50 PM)29.83 "Hg (Oct 6, 2:50 PM)
Average52 °F80%30.12 "Hg
* Reported Sep 28 11:20 PM — Oct 13 11:20 PM, Neunkirchen, Weather by CustomWeather, © 2015

Note: Actual official high and low records may vary slightly from our data, if they occured in-between our weather recording intervals... More about our weather records


Neunkirchen weather history for previous 24 hours

Time TempWeatherWind HumidityBarometerVisibility
11:20 PM
Tue, Oct 13
46 °FLight rain. Fog.13 mph93%30.01 "Hg2 mi
10:50 PM45 °FFog.14 mph100%30.01 "Hg2 mi
10:20 PM45 °FFog.13 mph100%30.01 "Hg2 mi
9:50 PM45 °FDrizzle. Fog.12 mph100%30.01 "Hg2 mi
9:20 PM45 °FDrizzle. Fog.10 mph100%30.01 "Hg2 mi
8:50 PM45 °FFog.12 mph100%30.01 "Hg2 mi
8:20 PM45 °FPassing clouds.13 mph93%30.04 "Hg4 mi
7:50 PM45 °FPassing clouds.10 mph93%30.01 "Hg5 mi
7:20 PM45 °FPassing clouds.9 mph87%30.04 "Hg6 mi
6:50 PM45 °FPartly sunny.9 mph87%30.04 "Hg6 mi
6:20 PM45 °FPartly sunny.8 mph87%30.04 "Hg6 mi
5:50 PM45 °FPartly sunny.8 mph81%30.04 "HgN/A
5:20 PM45 °FPartly sunny.7 mph81%30.04 "HgN/A
4:50 PM45 °FPartly sunny.7 mph81%30.04 "HgN/A
4:20 PM45 °FPartly sunny.7 mph81%30.04 "HgN/A
3:50 PM45 °FPartly sunny.8 mph81%30.04 "HgN/A
3:20 PM45 °FPartly sunny.9 mph81%30.04 "HgN/A
2:50 PM43 °FPartly sunny.9 mph87%30.04 "HgN/A
2:20 PM43 °FPartly sunny.9 mph87%30.07 "HgN/A
1:50 PM43 °FPartly sunny.7 mph87%30.07 "Hg6 mi
1:20 PM43 °FPartly sunny.8 mph81%30.07 "Hg6 mi
12:50 PM41 °FPartly sunny.8 mph87%30.07 "Hg6 mi
12:20 PM41 °FPartly sunny.8 mph81%30.07 "Hg6 mi
11:50 AM41 °FPartly sunny.10 mph81%30.07 "Hg6 mi
11:20 AM41 °FBroken clouds.8 mph81%30.07 "HgN/A
10:50 AM39 °FBroken clouds.10 mph87%30.07 "HgN/A
10:20 AM39 °FBroken clouds.8 mph81%30.09 "Hg6 mi
9:50 AM39 °FBroken clouds.6 mph81%30.09 "Hg5 mi
9:20 AM37 °FBroken clouds.5 mph87%30.09 "Hg4 mi
8:50 AM37 °FBroken clouds.6 mph87%30.07 "Hg4 mi
8:20 AM36 °FFog.2 mph100%30.07 "Hg3 mi
7:50 AM36 °FFog.5 mph93%30.07 "Hg3 mi
7:20 AM36 °FFog.3 mph93%30.07 "Hg3 mi
6:50 AM36 °FOvercast.3 mph93%30.07 "Hg5 mi
6:20 AM34 °FOvercast.6 mph93%30.07 "Hg5 mi
5:50 AM34 °FOvercast.5 mph93%30.07 "Hg6 mi
5:20 AM34 °FOvercast.6 mph93%30.07 "Hg6 mi
4:50 AM34 °FOvercast.5 mph93%30.07 "Hg6 mi
4:20 AM34 °FOvercast.3 mph93%30.09 "Hg6 mi
3:50 AM36 °FPassing clouds.3 mph87%30.09 "HgN/A
3:20 AM34 °FPassing clouds.3 mph93%30.09 "HgN/A
2:50 AM34 °FPassing clouds.2 mph100%30.09 "Hg6 mi
2:20 AM34 °FPassing clouds.2 mph93%30.09 "Hg6 mi
1:50 AM32 °FPassing clouds.3 mph100%30.09 "Hg6 mi
1:20 AM32 °FPassing clouds.6 mph93%30.09 "Hg6 mi
Weather by CustomWeather, © 2015

See weather overviewHow to use our weather pages